User: anonymous   Login
Location: Boullarre
(49.1305°N, 3.0047°E)
Time: 04:11:04
(UTC+00:00)
Language:

SKYMED 3 - Orbit

View from above orbital plane
View from above orbital plane
View from above satellite
View from above satellite

Ground track
Ground track

The orbit data is extracted from the following two-line orbital elements,

1 33412U 08054A   23147.76908854  .00002076  00000-0  20047-3 0  9995
2 33412  97.8903 337.2111 0018465  61.4987 298.8089 14.93849097789538
Epoch (UTC): 27 May 2023 18:27:29
Eccentricity: 0.0018465
inclination: 97.8903°
perigee height: 573 km
apogee height: 599 km
right ascension of ascending node: 337.2111°
argument of perigee: 61.4987°
revolutions per day: 14.93849097
mean anomaly at epoch: 298.8089°
orbit number at epoch: 78953

The dashed part of the orbit path shows where the satellite is in the earth's shadow,  

DLR